"Time","Temp","Dewpoint","Humidity","Pressure","Direction","Speed","Gust","Precip","PrecipRate"
"00:04:56","39.6","27.1","60.7","30.11","275","2.8","5.8","0.00","0.00"
"00:09:59","39.5","27","60.6","30.11","279","3.1","7.2","0.00","0.00"
"00:14:57","39.5","27.2","61.1","30.11","253","2.9","9.6","0.00","0.00"
"00:19:57","39.5","27","60.6","30.10","291","4.5","10.8","0.00","0.00"
"00:24:58","39.6","27","60.4","30.10","282","3.6","12","0.00","0.00"
"00:29:58","39.5","27.2","61","30.10","241","2.1","4.8","0.00","0.00"
"00:34:59","39.5","27.2","61","30.10","246","2.9","6","0.00","0.00"
"00:39:56","39.5","27.3","61.3","30.10","258","2.7","6","0.00","0.00"
"00:44:57","39.4","27.2","61.2","30.10","294","4.1","12","0.00","0.00"
"00:49:58","39.4","27.3","61.5","30.10","260","3.2","6.9","0.00","0.00"
"00:54:59","39.2","27.1","61.4","30.10","270","2.4","5.8","0.00","0.00"
"00:59:59","39.1","27.2","62","30.10","276","3.8","10.8","0.00","0.00"
"01:04:56","38.9","27","62","30.10","289","3","6","0.00","0.00"
"01:09:58","38.7","27","62.5","30.10","301","2.4","4.8","0.00","0.00"
"01:14:59","38.4","26.9","63","30.10","318","2.8","8.4","0.00","0.00"
"01:19:59","38.3","26.8","63","30.10","310","4.1","8.4","0.00","0.00"
"01:24:56","38.4","26.9","63","30.10","285","2.3","6","0.00","0.00"
"01:29:56","38.2","27","63.7","30.10","267","1.1","3.6","0.00","0.00"
"01:34:56","37.9","26.9","64.2","30.10","260","2.7","4.8","0.00","0.00"
"01:39:57","37.8","27.1","65","30.10","291","3.4","8.4","0.00","0.00"
"01:44:57","37.8","27.1","65","30.11","267","2.7","8.1","0.00","0.00"
"01:49:58","37.4","26.9","65.5","30.11","257","1.5","4.8","0.00","0.00"
"01:54:59","37.3","27","66","30.11","296","1.7","6","0.00","0.00"
"01:59:54","37.1","27.2","67","30.11","235","2.4","6","0.00","0.00"
"02:04:59","37.2","27.3","67","30.10","297","3.3","8.4","0.00","0.00"
"02:09:57","37.7","27.7","67.1","30.10","295","3.7","15","0.00","0.00"
"02:14:58","38.1","28.1","67","30.12","296","2.9","13.2","0.00","0.00"
"02:19:59","38.3","28.1","66.5","30.12","283","3.4","10.8","0.00","0.00"
"02:24:59","38.4","28.2","66.4","30.12","318","2.9","6","0.00","0.00"
"02:29:56","38.5","28.3","66.4","30.12","293","3.7","9.6","0.00","0.00"
"02:34:56","38.7","28.3","66.2","30.12","278","4.8","15","0.00","0.00"
"02:39:57","38.8","28.4","66","30.12","274","2.8","8.1","0.00","0.00"
"02:44:58","38.9","28.5","66","30.12","288","3.6","12","0.00","0.00"
"02:49:58","38.7","28.3","66","30.12","283","2.6","6.9","0.00","0.00"
"02:54:58","38.7","28.3","65.9","30.12","280","4.3","12","0.00","0.00"
"02:59:58","38.7","28.2","65.8","30.12","282","3.4","8.4","0.00","0.00"
"03:04:57","38.7","28.3","65.9","30.12","288","4.1","10.8","0.00","0.00"
"03:09:56","38.8","28.4","66","30.12","269","2.9","15","0.00","0.00"
"03:14:57","38.8","28.4","66","30.13","294","3.1","15","0.00","0.00"
"03:19:57","38.9","28.3","65.5","30.13","292","4.3","8.4","0.00","0.00"
"03:24:57","39","28.5","65.7","30.13","302","3.4","6","0.00","0.00"
"03:29:57","39.1","28.4","65.2","30.13","272","2.8","7.2","0.00","0.00"
"03:34:58","39.1","28.3","65","30.13","272","2.9","6","0.00","0.00"
"03:39:59","39.1","28.4","65.2","30.13","335","1.4","5.8","0.00","0.00"
"03:44:56","39.1","28.4","65.3","30.13","290","3.1","8.4","0.00","0.00"
"03:49:57","39.1","28.5","65.5","30.13","292","2.2","8.1","0.00","0.00"
"03:54:57","39.1","28.4","65.3","30.13","279","3.4","12","0.00","0.00"
"03:59:57","39.1","28.7","66","30.13","255","1.9","7.2","0.00","0.00"
"04:04:58","39.1","28.4","65.2","30.13","303","2.8","7.2","0.00","0.00"
"04:09:56","39.1","28.5","65.5","30.13","279","3.2","6.9","0.00","0.00"
"04:14:57","39.1","28.6","65.5","30.13","274","2.7","4.8","0.00","0.00"
"04:19:58","39.2","28.5","65.2","30.13","288","3.7","10.8","0.00","0.00"
"04:24:58","39.2","28.6","65.5","30.13","319","4.1","12","0.00","0.00"
"04:29:59","39.2","28.7","65.7","30.14","308","3.3","8.4","0.00","0.00"
"04:34:59","39.2","28.7","65.9","30.14","279","3","8.4","0.00","0.00"
"04:39:56","39.2","28.6","65.3","30.14","280","3.9","10.8","0.00","0.00"
"04:44:57","39.3","28.6","65.3","30.14","292","3.9","9.6","0.00","0.00"
"04:49:57","39.3","28.6","65.3","30.14","289","3.6","8.4","0.00","0.00"
"04:54:58","39.3","28.6","65.2","30.14","307","4.3","12","0.00","0.00"
"04:59:58","39.3","28.7","65.5","30.14","300","3.8","12","0.00","0.00"
"05:04:54","39.3","28.9","66","30.14","302","2.9","6.9","0.00","0.00"
"05:09:57","39.2","28.9","66.2","30.14","287","2.5","12","0.00","0.00"
"05:14:58","39.1","28.7","66","30.15","330","3","8.4","0.00","0.00"
"05:19:58","39.2","29.1","66.8","30.15","301","3.8","9.6","0.00","0.00"
"05:24:58","39.2","29.2","67","30.15","282","2.7","8.1","0.00","0.00"
"05:29:58","39.2","29.2","67","30.15","278","2","7.2","0.00","0.00"
"05:34:58","39.2","29.2","67","30.15","278","2.2","8.4","0.00","0.00"
"05:39:59","39.2","29.2","67","30.15","277","3.5","10.8","0.00","0.00"
"05:44:57","39.2","29.2","67","30.16","289","3.2","8.4","0.00","0.00"
"05:49:58","39.2","29.2","67.2","30.16","275","3.2","13.2","0.00","0.00"
"05:54:59","39.2","29.2","67","30.16","304","4.6","13.2","0.00","0.00"
"05:59:59","39.2","29.3","67.3","30.16","291","3","10.8","0.00","0.00"
"06:04:59","39.2","29.2","67.1","30.16","277","3.2","10.4","0.00","0.00"
"06:09:59","39.2","29.2","67","30.16","299","5.4","10.8","0.00","0.00"
"06:14:59","39.3","29.3","67","30.17","298","3.7","7.2","0.00","0.00"
"06:19:59","39.3","29.3","67","30.17","294","4.3","12","0.00","0.00"
"06:24:59","39.2","29.3","67.2","30.17","294","3.5","9.2","0.00","0.00"
"06:29:59","39.2","29.4","67.7","30.17","284","2.8","12","0.00","0.00"
"06:34:59","39.1","29.2","67.1","30.17","304","3.4","8.4","0.00","0.00"
"06:39:56","39.2","29.3","67.2","30.17","276","3.4","8.4","0.00","0.00"
"06:44:57","39.1","29.2","67.3","30.17","287","2.6","6","0.00","0.00"
"06:49:58","39.2","29.2","67","30.17","292","3.7","8.4","0.00","0.00"
"06:54:58","39.2","29.2","67.1","30.17","269","3","10.8","0.00","0.00"
"06:59:58","39.2","29.2","67","30.18","290","3.8","8.4","0.00","0.00"
"07:04:59","39.3","29.2","66.7","30.18","293","3.9","8.4","0.00","0.00"
"07:09:58","39.3","29.3","67","30.18","285","3.5","10.8","0.00","0.00"
"07:14:54","39.3","29","66.3","30.18","345","3.8","10.8","0.00","0.00"
"07:19:58","39.3","29.2","66.8","30.18","279","3.9","8.4","0.00","0.00"
"07:24:58","39.2","29.1","66.7","30.18","291","3.2","7.2","0.00","0.00"
"07:29:58","39.3","29.1","66.7","30.19","291","3.7","10.8","0.00","0.00"
"07:34:59","39.3","29.3","67","30.19","305","4.4","10.8","0.00","0.00"
"07:39:56","39.3","29.3","67.1","30.19","299","1.6","4.8","0.00","0.00"
"07:44:57","39.2","29.3","67.3","30.19","284","4","13.2","0.00","0.00"
"07:49:57","39.2","29.2","67","30.19","319","3.1","12.7","0.00","0.00"
"07:54:57","39.2","29.3","67.2","30.19","304","3.2","8.4","0.00","0.00"
"07:59:18","39.3","29.3","67","30.19","305","3.4","8.1","0.00","0.00"
"08:08:16","39.2","29.3","67.4","30.19","305","2.5","6","0.00","0.00"
"08:18:29","39.2","29.3","67.3","30.20","318","2.4","7.2","0.00","0.00"
"08:20:28","39.2","29.5","68","30.20","263","4","6","0.00","0.00"
"08:29:45","39.4","29.3","67","30.21","249","3","10.8","0.00","0.00"
"08:33:38","39.4","29.7","68","30.21","301","2.8","4.8","0.00","0.00"
"08:39:42","39.4","29.3","67","30.21","276","2.9","6","0.00","0.00"
"08:44:54","39.6","29.5","67","30.21","4","3.3","6","0.00","0.00"
"08:45:25","39.6","29.5","67","30.21","351","3.4","6","0.00","0.00"
"08:51:20","39.6","29.5","67","30.21","328","3.1","6","0.00","0.00"
"08:55:08","39.7","29.6","67","30.21","335","2.8","6","0.00","0.00"
"09:02:20","39.8","30.1","68","30.22","345","1.5","8.4","0.00","0.00"
"09:18:53","39.9","29.8","67","30.22","264","3.8","8.4","0.00","0.00"
"09:24:32","40","29.9","67","30.22","290","3.4","8.4","0.00","0.00"
"09:27:42","40","29.9","67","30.22","325","2.2","8.1","0.00","0.00"
"09:33:13","40.1","30","67","30.24","302","2","4.8","0.00","0.00"
"09:38:08","40.1","29.6","66","30.24","292","2.5","7.2","0.00","0.00"
"09:41:59","40.2","30.1","67","30.24","290","1.5","3.6","0.00","0.00"
"09:45:38","40.3","29.8","66","30.24","349","4.2","6","0.00","0.00"
"09:53:52","40.3","29.8","66","30.24","322","2.7","9.6","0.00","0.00"
"09:59:43","40.4","29.8","65.7","30.24","317","2.3","7.2","0.00","0.00"
"10:02:49","40.4","29.9","66","30.24","327","2.6","5.8","0.00","0.00"
"10:09:20","40.6","29.5","64.3","30.24","344","3.2","15","0.00","0.00"
"10:18:10","40.6","29.4","64","30.25","283","3.8","12","0.00","0.00"
"10:28:58","40.8","28.8","62","30.25","19","8.2","14.4","0.00","0.00"
"10:36:15","40.8","28.4","61","30.26","329","4.5","17.3","0.00","0.00"
"10:41:08","40.7","28.3","61","30.26","355","9.1","16.8","0.00","0.00"
"10:54:15","40.8","28","60","30.26","326","6.3","19.2","0.00","0.00"
"10:57:20","40.8","28.4","61","30.26","305","5.4","12","0.00","0.00"
"11:08:43","40.9","28.1","60","30.26","327","3.7","12","0.00","0.00"
"11:14:51","40.9","28.4","60.7","30.26","327","7.1","18.4","0.00","0.00"
"11:15:14","40.9","28.1","60","30.26","85","4.8","8.1","0.00","0.00"
"11:28:47","40.9","28.1","60","30.26","243","7.4","18","0.00","0.00"
"11:38:56","40.7","27.9","60","30.26","308","7.2","18.4","0.00","0.00"
"11:42:11","40.8","28","60","30.26","338","4.8","11.5","0.00","0.00"
"11:52:28","40.8","28","60","30.26","240","6.9","16.8","0.00","0.00"
"11:59:12","41","28.4","60.5","30.26","331","5.1","17.3","0.00","0.00"
"12:01:13","41","28.4","60.5","30.25","357","5.7","11.5","0.00","0.00"
"12:07:25","41","27.8","59","30.25","327","7.1","13.2","0.00","0.00"
"12:12:31","41.1","28.3","60","30.25","344","5.9","12.7","0.00","0.00"
"12:19:59","41.3","28.2","59.5","30.24","307","3.8","15","0.00","0.00"
"12:24:21","41.4","27.7","58","30.24","13","7.5","16.1","0.00","0.00"
"12:25:40","41.5","28.2","59","30.24","356","6.9","16.1","0.00","0.00"
"12:34:58","41.7","28.2","58.7","30.24","347","4.8","15","0.00","0.00"
"12:39:33","42.1","28.8","59","30.24","342","3.5","10.8","0.00","0.00"
"12:43:45","42.3","28.5","58","30.24","340","5.6","13.2","0.00","0.00"
"12:45:22","42.3","28.1","57","30.22","323","3.9","10.4","0.00","0.00"
"12:59:26","42","27.9","57","30.22","254","2.9","12","0.00","0.00"
"13:01:52","42.1","28.8","59","30.22","264","3.4","7.2","0.00","0.00"
"13:09:08","41.8","28.2","58","30.22","325","2.7","8.4","0.00","0.00"
"13:14:43","41.9","28.2","58","30.22","338","4.4","10.8","0.00","0.00"
"13:19:54","41.8","28.1","58","30.22","331","5.6","10.8","0.00","0.00"
"13:22:06","41.8","28.1","58","30.22","325","6.4","12","0.00","0.00"
"13:26:18","41.7","28","58","30.22","360","3","11.5","0.00","0.00"
"13:33:15","42.1","28.8","59","30.22","331","0.8","8.4","0.00","0.00"
"13:38:10","42.3","28.3","57.3","30.22","317","4.2","13.2","0.00","0.00"
"13:44:08","42.2","28.5","58","30.22","277","3.2","8.4","0.00","0.00"
"13:46:54","42.3","28.6","58","30.22","331","5.2","8.4","0.00","0.00"
"13:54:33","42.2","28.4","58","30.22","330","4.1","9.6","0.00","0.00"
"14:06:16","41.9","28.2","58","30.22","355","5.2","13.2","0.00","0.00"
"14:16:14","41.9","28.2","58","30.22","339","5","11.5","0.00","0.00"
"14:24:53","41.9","28.2","58","30.22","318","6.1","12","0.00","0.00"
"14:27:58","41.9","28.2","58","30.22","332","5","11.5","0.00","0.00"
"14:34:26","41.9","28.4","58.5","30.22","332","3.5","9.6","0.00","0.00"
"14:40:36","42","28.7","59","30.22","352","3.6","18","0.00","0.00"
"14:46:42","42.1","28.2","57.5","30.22","355","5.5","12","0.00","0.00"
"14:53:14","42.1","28.4","58","30.22","333","4.9","8.4","0.00","0.00"
"15:04:36","41.8","28.1","58","30.22","5","6.6","9.6","0.00","0.00"
"15:09:43","41.8","28.1","58","30.22","337","5.6","12","0.00","0.00"
"15:13:22","41.7","28","58","30.22","340","4.2","10.4","0.00","0.00"
"15:16:24","41.7","28","58","30.22","35","6.2","8.4","0.00","0.00"
"15:21:15","41.6","27.9","58","30.22","335","4.5","9.6","0.00","0.00"
"15:34:57","41.5","27.8","58","30.23","5","4.7","12","0.00","0.00"
"15:35:49","41.5","27.8","58","30.23","5","2.5","11.5","0.00","0.00"
"15:44:42","41.5","28.1","58.8","30.23","335","2.5","6","0.00","0.00"
"15:52:50","41.6","28.3","59","30.23","310","2.2","12","0.00","0.00"
"15:58:12","41.5","28","58.5","30.23","338","2.5","7.2","0.00","0.00"
"16:17:15","41.3","27.6","58","30.24","320","1.9","8.1","0.00","0.00"
"16:23:29","41","27.6","58.5","30.24","319","1.3","6","0.00","0.00"
"16:26:33","41","27.3","58","30.24","331","2.8","4.8","0.00","0.00"
"16:34:27","41","27.6","58.5","30.24","315","1","3.6","0.00","0.00"
"16:49:57","40.7","27.1","58","30.24","267","1.2","7.2","0.00","0.00"
"17:01:45","40.5","27.1","58.5","30.25","305","0.1","4.8","0.00","0.00"
"17:11:16","40","27.6","61","30.25","227","1.1","3.6","0.00","0.00"
"17:18:51","39.9","27.1","60","30.25","227","0","2.3","0.00","0.00"
"17:21:52","39.8","27","60","30.25","227","0","0","0.00","0.00"
"17:26:31","39.7","27.3","61","30.25","247","1.8","6","0.00","0.00"
"17:34:31","39.7","26.9","60","30.25","268","0","8.1","0.00","0.00"
"17:39:38","39.6","27.2","61","30.25","273","0.9","3.6","0.00","0.00"
"17:44:29","39.6","27.1","60.8","30.25","273","0.4","3.6","0.00","0.00"
"17:47:58","39.5","27.4","61.5","30.25","273","0.4","1.2","0.00","0.00"
"17:51:21","39.4","27.5","62","30.25","273","0","1.2","0.00","0.00"
"18:09:08","38.8","26.9","62","30.24","273","0","2.3","0.00","0.00"
"18:19:41","38.3","26.8","63","30.24","273","0","2.4","0.00","0.00"
"18:24:08","37.9","26.8","64","30.24","273","0","0","0.00","0.00"
"18:29:59","37.7","26.6","64","30.24","273","0","1.2","0.00","0.00"
"18:33:23","37.4","26.3","64","30.24","273","0","0","0.00","0.00"
"18:38:58","36.9","26.2","65","30.24","273","0","2.4","0.00","0.00"
"18:40:28","36.8","26.1","65","30.24","273","0","0","0.00","0.00"
"18:51:45","35.8","26.3","68","30.24","273","0.1","1.2","0.00","0.00"
"19:01:43","35.3","26.1","69","30.24","273","0","0","0.00","0.00"
"19:07:26","34.8","26","70","30.24","273","0","0","0.00","0.00"
"19:10:43","34.4","26","71","30.24","273","0","0","0.00","0.00"
"19:19:38","33.7","25.6","72","30.25","273","0","0","0.00","0.00"
"19:22:23","33.1","25.4","73","30.25","273","0","0","0.00","0.00"
"19:32:46","32.3","24.9","74","30.26","273","0","0","0.00","0.00"
"19:43:48","31.5","25","76.5","30.26","273","0.6","1.2","0.00","0.00"
"19:46:29","31.1","24.7","77","30.25","273","0.6","2.4","0.00","0.00"
"19:58:22","30.4","24.4","78","30.25","273","0","2.3","0.00","0.00"
"20:00:32","30.3","24.3","78","30.25","273","0","0","0.00","0.00"
"20:09:56","29.8","24.1","79","30.25","273","0","1.2","0.00","0.00"
"20:12:25","29.6","24.2","80","30.25","273","0","0","0.00","0.00"
"20:19:22","29.2","23.8","80","30.25","273","0","0","0.00","0.00"
"20:31:52","28.7","23.9","82","30.25","273","0.1","2.4","0.00","0.00"
"20:49:35","28.1","23.6","83","30.25","273","0","0","0.00","0.00"
"21:02:37","27.6","23.5","84.3","30.25","273","0","0","0.00","0.00"
"21:09:29","27.4","23.5","85","30.25","273","0","0","0.00","0.00"
"21:17:09","27.1","23.2","85","30.26","273","0","0","0.00","0.00"
"21:21:21","27.1","23.5","86","30.26","273","0","2.4","0.00","0.00"
"21:27:14","27.2","23.6","86","30.26","273","0","2.4","0.00","0.00"
"21:32:50","27.3","23.5","85.3","30.25","273","0","0","0.00","0.00"
"21:39:07","27.1","23.2","85","30.25","273","0","0","0.00","0.00"
"21:44:22","26.9","23","85","30.26","273","0","0","0.00","0.00"
"21:51:11","26.7","23.1","86","30.26","273","0","0","0.00","0.00"
"21:59:59","26.5","22.9","86","30.26","273","0","0","0.00","0.00"
"22:07:57","26.3","23","87","30.24","273","0","0","0.00","0.00"
"22:19:57","26","22.7","87","30.23","273","0","0","0.00","0.00"
"22:23:24","25.9","22.6","87","30.23","273","0","0","0.00","0.00"
"22:26:41","25.8","22.5","87","30.23","273","0","0","0.00","0.00"
"22:32:23","25.7","22.4","87","30.23","273","0","0","0.00","0.00"
"22:35:15","25.6","22.5","88","30.23","273","0","0","0.00","0.00"
"22:43:44","25.4","22.3","88","30.23","273","0","0","0.00","0.00"
"22:49:39","25.2","22.1","88","30.23","273","0","0","0.00","0.00"
"22:50:58","25.2","22.1","88","30.23","273","0","0","0.00","0.00"
"22:56:16","25.1","22","88","30.23","273","0","0","0.00","0.00"
"23:01:11","25","22.2","89","30.23","273","0","0","0.00","0.00"
"23:13:28","25","22.2","89","30.23","273","0","0","0.00","0.00"
"23:29:22","25","21.9","88","30.23","273","0","0","0.00","0.00"
"23:32:09","24.9","22.1","89","30.23","273","0","0","0.00","0.00"
"23:39:59","24.8","22","89","30.23","273","0","0","0.00","0.00"
"23:42:36","24.7","21.9","89","30.23","273","0","0","0.00","0.00"
"23:45:17","24.7","21.9","89","30.24","273","0","0","0.00","0.00"
"23:52:33","24.8","22.3","90","30.24","273","0","0","0.00","0.00"
